Sarasota, FL

12:19 PM EST on December 12, 2019 (GMT -0500)
Sarasota-bradenton

Weather History for KSRQ - August, 2019

Change the Weather History Date:

Tuesday, August 20, 2019

  Actual Average Record
Temperature  
Mean Temperature 82 °F 82 °F  
Max Temperature 90 °F 90 °F 96 °F (1973)
Min Temperature 75 °F 74 °F 62 °F (1911)
Degree Days  
Heating Degree Days 0 0  
Month to date heating degree days 0 0  
Since 1 June heating degree days 0 0  
Since 1 July heating degree days 0 0  
Cooling Degree Days 18 17  
Month to date cooling degree days 362 340  
Year to date cooling degree days 2633 2102  
Since 1 June cooling degree days 1476 1351  
Growing Degree Days 32 (Base 50)    
Moisture  
Dew Point 75 °F    
Average Humidity 84    
Maximum Humidity 100    
Minimum Humidity 59    
Precipitation  
Precipitation 0.86 in 0.31 in 3.80 in (1949)
Month to date precipitation 11.91 5.88  
Year to date precipitation 40.44 35.07  
Sea Level Pressure  
Sea Level Pressure 30.05 in    
Wind  
Wind Speed 5 mph ()    
Max Wind Speed 22 mph    
Max Gust Speed 25 mph    
Visibility 8.7 miles    
Events Fog , Rain , Thunderstorm    
T = Trace of Precipitation, MM = Missing Value Source: Averaged Metar Reports

Daily Weather History Graph

Daily Weather History Graph

Search for Another Location

Airport or City:

Astronomy

Aug. 20, 2019 Rise Set
Actual Time 7:03 AM EDT 8:03 PM EDT
Civil Twilight 6:39 AM EDT 8:27 PM EDT
Nautical Twilight 6:10 AM EDT 8:56 PM EDT
Astronomical Twilight 5:41 AM EDT 9:25 PM EDT
Moon 11:16 PM EDT (8/20) 11:17 AM EDT (8/20)
Length of Visible Light 13h 48m
Length of Day
12h 59m
Waning Gibbous, 78% of the Moon is Illuminated
Aug 20
Waning Gibbous
Aug 23
Last Quarter
Aug 30
New
Sep 5
First Quarter
Sep 14
Full

Hourly Weather History & Observations

Time (EDT) Temp. Heat Index Dew Point Humidity Pressure Visibility Wind Dir Wind Speed Gust Speed Precip Events Conditions
12:53 AM 77.0 °F - 75.0 °F 94% 30.07 in 10.0 mi NE 4.6 mph - N/A   Clear
1:53 AM 77.0 °F - 73.9 °F 90% 30.05 in 10.0 mi Calm Calm - N/A   Clear
2:53 AM 75.9 °F - 73.9 °F 94% 30.03 in 10.0 mi Calm Calm - N/A   Clear
3:53 AM 75.9 °F - 73.9 °F 94% 30.01 in 10.0 mi NE 4.6 mph - N/A   Clear
4:53 AM 75.9 °F - 75.0 °F 97% 30.03 in 10.0 mi Calm Calm - N/A   Clear
5:53 AM 75.9 °F - 75.0 °F 97% 30.03 in 10.0 mi East 5.8 mph - N/A   Clear
6:53 AM 75.9 °F - 75.0 °F 97% 30.04 in 10.0 mi ENE 4.6 mph - N/A   Clear
7:53 AM 77.0 °F - 75.0 °F 94% 30.07 in 10.0 mi East 5.8 mph - N/A   Clear
8:53 AM 80.1 °F 85.4 °F 75.9 °F 87% 30.07 in 10.0 mi ENE 5.8 mph - N/A   Clear
9:53 AM 82.9 °F 89.4 °F 73.9 °F 74% 30.08 in 10.0 mi East 10.4 mph - N/A   Partly Cloudy
10:20 AM 82.9 °F 89.4 °F 73.9 °F 74% 30.08 in 10.0 mi East 9.2 mph - N/A   Partly Cloudy
10:53 AM 84.9 °F 93.3 °F 75.0 °F 72% 30.09 in 10.0 mi ESE 10.4 mph - N/A   Scattered Clouds
11:53 AM 87.1 °F 95.4 °F 73.9 °F 65% 30.09 in 10.0 mi SE 12.7 mph - N/A   Scattered Clouds
12:53 PM 89.1 °F 98.0 °F 73.9 °F 61% 30.07 in 10.0 mi SE 8.1 mph - N/A   Scattered Clouds
1:53 PM 84.9 °F 92.1 °F 73.9 °F 69% 30.05 in 10.0 mi SW 6.9 mph - 0.00 in Rain Light Rain
2:34 PM 84.9 °F 94.1 °F 75.9 °F 74% 30.04 in 10.0 mi West 9.2 mph - 0.00 in Thunderstorm Overcast
2:53 PM 84.9 °F 94.1 °F 75.9 °F 74% 30.04 in 9.0 mi West 8.1 mph - 0.01 in Thunderstorm Thunderstorm
3:03 PM 81.0 °F 87.3 °F 75.9 °F 85% 30.06 in 1.8 mi South 15.0 mph 24.2 mph 0.18 in Rain , Thunderstorm Heavy Thunderstorms and Rain
3:09 PM 79.0 °F - 75.9 °F 90% 30.05 in 0.5 mi SSW 11.5 mph 25.3 mph 0.51 in Fog , Rain , Thunderstorm Heavy Thunderstorms and Rain
3:14 PM 79.0 °F - 75.9 °F 90% 30.05 in 0.5 mi SSW 12.7 mph - 0.71 in Fog , Rain Heavy Rain
3:19 PM 79.0 °F - 75.9 °F 90% 30.05 in 1.0 mi South 5.8 mph - 0.74 in Rain Heavy Rain
3:26 PM 79.0 °F - 75.9 °F 90% 30.04 in 4.0 mi East 3.5 mph - 0.75 in Rain Rain
3:53 PM 80.1 °F 85.1 °F 75.0 °F 85% 30.03 in 10.0 mi WSW 3.5 mph - 0.78 in Rain , Thunderstorm Light Rain
4:09 PM 80.1 °F 85.1 °F 75.0 °F 85% 30.02 in 10.0 mi Calm Calm - 0.00 in   Partly Cloudy
4:53 PM 82.0 °F 88.6 °F 75.0 °F 79% 30.03 in 10.0 mi ESE 6.9 mph - 0.00 in   Partly Cloudy
5:53 PM 82.0 °F 87.9 °F 73.9 °F 76% 30.03 in 10.0 mi East 6.9 mph - N/A   Mostly Cloudy
6:53 PM 82.0 °F 87.4 °F 73.0 °F 74% 30.03 in 10.0 mi SSE 8.1 mph - 0.00 in   Overcast
7:06 PM 82.0 °F 87.9 °F 73.9 °F 76% 30.04 in 10.0 mi Variable 3.5 mph - N/A Thunderstorm Overcast
7:21 PM 81.0 °F 86.7 °F 75.0 °F 82% 30.04 in 10.0 mi ENE 5.8 mph - N/A   Overcast
7:53 PM 81.0 °F 86.7 °F 75.0 °F 82% 30.05 in 10.0 mi ENE 3.5 mph - N/A   Overcast
8:53 PM 80.1 °F 85.1 °F 75.0 °F 85% 30.06 in 10.0 mi Calm Calm - N/A   Clear
9:53 PM 79.0 °F - 75.0 °F 88% 30.07 in 10.0 mi Calm Calm - N/A   Scattered Clouds
10:53 PM 79.0 °F - 75.0 °F 88% 30.09 in 10.0 mi ENE 4.6 mph - N/A   Partly Cloudy
11:53 PM 78.1 °F - 75.0 °F 90% 30.09 in 10.0 mi Calm Calm - 0.07 in   Mostly Cloudy